Location: Central Coast NSW, Australia
(33.2407°S, 151.4316°E)
Time: 15:30:16
(UTC+10:00)

Envisat - Visible Passes

Search period start: 25 May 2018 00:00
Search period end: 04 June 2018 00:00
Orbit: 764 x 766 km, 98.2° (Epoch: 24 May)

Date Brightness Start Highest point End Pass type
(mag) Time Alt. Az. Time Alt. Az. Time Alt. Az.
27 May 5.7 05:59:25 10° E 06:01:54 14° ESE 06:04:24 10° SE visible
30 May 6.0 05:50:01 10° ESE 05:50:54 10° ESE 05:51:48 10° SE visible
01 Jun 5.5 06:12:35 10° ENE 06:16:09 19° ESE 06:19:43 10° SSE visible
